Weather History for Litchfield, MN

Change the Weather History Date:

Tuesday, June 17, 2014

  Actual Average Record
Temperature  
Mean Temperature 70 °F -  
Max Temperature 80 °F 79 °F 93 °F (1971)
Min Temperature 59 °F 56 °F 43 °F (1983)
Cooling Degree Days 4    
Growing Degree Days 20 (Base 50)    
Moisture  
Dew Point 64 °F    
Average Humidity 78    
Maximum Humidity 100    
Minimum Humidity 58    
Precipitation  
Precipitation 0.00 in - - ()
Sea Level Pressure  
Sea Level Pressure 29.81 in    
Wind  
Wind Speed 4 mph (ESE)    
Max Wind Speed 8 mph    
Max Gust Speed -    
Visibility 10 miles    
Events      
Averages and records for this station are not official NWS values.
T = Trace of Precipitation, MM = Missing Value Source: NWS Daily Summary

Daily Weather History Graph

Daily Weather History Graph

Search for Another Location

Airport:

Trip Planner

Search our weather history database for the weather conditions in past years. The results will help you decide how hot, cold, wet, or windy it might be!

Date:

Astronomy

Jun. 17, 2014 Rise Set
Actual Time 5:30 AM CDT 9:07 PM CDT
Civil Twilight 4:52 AM CDT 9:45 PM CDT
Nautical Twilight 4:02 AM CDT 10:35 PM CDT
Astronomical Twilight 2:56 AM CDT 11:41 PM CDT
Moon No Moon Rise 10:58 AM CDT (6/17)
Length of Visible Light 16h 52m
Length of Day
15h 37m
Waning Gibbous, 73% of the Moon is Illuminated
Jun 17
Waning Gibbous
Jun 19
Last Quarter
Jun 27
New
Jul 5
First Quarter
Jul 12
Full

Hourly Weather History & Observations

Time (CDT) Temp. Heat Index Dew Point Humidity Pressure Visibility Wind Dir Wind Speed Gust Speed Precip Events Conditions
12:12 AM 64.4 °F - 60.8 °F 88% 29.71 in 10.0 mi East 6.9 mph - N/A   Scattered Clouds
12:33 AM 64.4 °F - 59.0 °F 83% 29.71 in 10.0 mi ENE 4.6 mph - N/A   Clear
12:53 AM 64.4 °F - 60.8 °F 88% 29.72 in 10.0 mi East 4.6 mph - N/A   Unknown
1:12 AM 64.4 °F - 59.0 °F 83% 29.71 in 10.0 mi East 8.1 mph - N/A   Unknown
1:33 AM 64.4 °F - 60.8 °F 88% 29.72 in 10.0 mi ENE 4.6 mph - N/A   Unknown
1:53 AM 64.4 °F - 60.8 °F 88% 29.73 in 10.0 mi NE 4.6 mph - N/A   Unknown
2:12 AM 64.4 °F - 60.8 °F 88% 29.72 in 10.0 mi ENE 4.6 mph - N/A   Clear
2:33 AM 64.4 °F - 60.8 °F 88% 29.73 in 10.0 mi ENE 3.5 mph - N/A   Clear
2:53 AM 62.6 °F - 60.8 °F 94% 29.73 in 10.0 mi ENE 5.8 mph - N/A   Clear
3:12 AM 62.6 °F - 60.8 °F 94% 29.74 in 10.0 mi Calm Calm - N/A   Clear
3:33 AM 62.6 °F - 60.8 °F 94% 29.75 in 10.0 mi East 3.5 mph - N/A   Clear
3:53 AM 62.6 °F - 60.8 °F 94% 29.75 in 10.0 mi East 4.6 mph - N/A   Clear
4:12 AM 60.8 °F - 59.0 °F 94% 29.76 in 10.0 mi East 3.5 mph - N/A   Clear
4:33 AM 60.8 °F - 59.0 °F 94% 29.76 in 10.0 mi ESE 3.5 mph - N/A   Clear
4:52 AM 60.8 °F - 59.0 °F 94% 29.77 in 10.0 mi Calm Calm - N/A   Clear
5:13 AM 60.8 °F - 59.0 °F 94% 29.78 in 10.0 mi Calm Calm - N/A   Clear
5:32 AM 59.0 °F - 59.0 °F 100% 29.78 in 10.0 mi ESE 3.5 mph - N/A   Clear
5:53 AM 60.8 °F - 59.0 °F 94% 29.79 in 10.0 mi Calm Calm - N/A   Clear
6:13 AM 60.8 °F - 60.8 °F 100% 29.79 in 10.0 mi Calm Calm - N/A   Clear
6:32 AM 62.6 °F - 60.8 °F 94% 29.79 in 10.0 mi Calm Calm - N/A   Clear
6:52 AM 62.6 °F - 60.8 °F 94% 29.80 in 10.0 mi Calm Calm - N/A   Clear
7:13 AM 62.6 °F - 60.8 °F 94% 29.81 in 10.0 mi Calm Calm - N/A   Clear
7:53 AM 64.4 °F - 62.6 °F 94% 29.80 in 10.0 mi Calm Calm - N/A   Scattered Clouds
8:13 AM 66.2 °F - 64.4 °F 94% 29.80 in 10.0 mi Calm Calm - N/A   Scattered Clouds
8:32 AM 69.8 °F - 64.4 °F 83% 29.78 in 10.0 mi Calm Calm - N/A   Clear
8:53 AM 69.8 °F - 64.4 °F 83% 29.79 in 10.0 mi SSE 4.6 mph - N/A   Clear
9:13 AM 71.6 °F - 64.4 °F 78% 29.79 in 10.0 mi South 3.5 mph - N/A   Clear
9:32 AM 71.6 °F - 64.4 °F 78% 29.80 in 10.0 mi SSW 3.5 mph - N/A   Clear
9:53 AM 73.4 °F - 66.2 °F 78% 29.81 in 10.0 mi SSW 4.6 mph - N/A   Clear
10:13 AM 73.4 °F - 66.2 °F 78% 29.82 in 10.0 mi South 5.8 mph - N/A   Scattered Clouds
10:32 AM 73.4 °F - 66.2 °F 78% 29.82 in 10.0 mi SSW 5.8 mph - N/A   Clear
10:53 AM 75.2 °F - 66.2 °F 73% 29.83 in 10.0 mi SSW 5.8 mph - N/A   Clear
11:13 AM 75.2 °F - 64.4 °F 69% 29.83 in 10.0 mi WSW 5.8 mph - N/A   Clear
11:32 AM 75.2 °F - 66.2 °F 73% 29.83 in 10.0 mi Calm Calm - N/A   Clear
11:53 AM 78.8 °F - 64.4 °F 61% 29.83 in 10.0 mi Calm Calm - N/A   Clear
12:13 PM 78.8 °F - 66.2 °F 65% 29.83 in 10.0 mi SSE 6.9 mph - N/A   Scattered Clouds
12:32 PM 78.8 °F - 66.2 °F 65% 29.83 in 10.0 mi SSE 5.8 mph - N/A   Scattered Clouds
12:53 PM 78.8 °F - 66.2 °F 65% 29.83 in 10.0 mi Calm Calm - N/A   Scattered Clouds
1:13 PM 78.8 °F - 66.2 °F 65% 29.83 in 10.0 mi South 3.5 mph - N/A   Scattered Clouds
1:32 PM 78.8 °F - 66.2 °F 65% 29.83 in 10.0 mi SSE 3.5 mph - N/A   Overcast
1:53 PM 78.8 °F - 66.2 °F 65% 29.84 in 10.0 mi South 3.5 mph - N/A   Scattered Clouds
2:13 PM 78.8 °F - 66.2 °F 65% 29.83 in 10.0 mi Calm Calm - N/A   Clear
2:32 PM 78.8 °F - 66.2 °F 65% 29.83 in 10.0 mi Calm Calm - N/A   Clear
2:53 PM 80.6 °F 82.7 °F 66.2 °F 61% 29.83 in 10.0 mi SE 3.5 mph - N/A   Clear
3:13 PM 80.6 °F 83.2 °F 68.0 °F 65% 29.83 in 10.0 mi Calm Calm - N/A   Clear
3:32 PM 80.6 °F 83.2 °F 68.0 °F 65% 29.83 in 10.0 mi SSE 3.5 mph - N/A   Clear
3:53 PM 80.6 °F 82.3 °F 64.4 °F 58% 29.82 in 10.0 mi SE 4.6 mph - N/A   Clear
4:13 PM 80.6 °F 82.7 °F 66.2 °F 61% 29.83 in 10.0 mi ESE 3.5 mph - N/A   Clear
4:32 PM 80.6 °F 82.7 °F 66.2 °F 61% 29.83 in 10.0 mi ESE 6.9 mph - N/A   Clear
4:53 PM 80.6 °F 82.3 °F 64.4 °F 58% 29.83 in 10.0 mi SE 6.9 mph - N/A   Clear
5:12 PM 80.6 °F 82.7 °F 66.2 °F 61% 29.83 in 10.0 mi SE 6.9 mph - N/A   Clear
5:33 PM 80.6 °F 82.7 °F 66.2 °F 61% 29.83 in 10.0 mi SE 6.9 mph - N/A   Clear
5:53 PM 80.6 °F 82.7 °F 66.2 °F 61% 29.83 in 10.0 mi SE 6.9 mph - N/A   Scattered Clouds
6:12 PM 78.8 °F - 66.2 °F 65% 29.83 in 10.0 mi SE 6.9 mph - N/A   Scattered Clouds
6:33 PM 78.8 °F - 66.2 °F 65% 29.83 in 10.0 mi SE 8.1 mph - N/A   Mostly Cloudy
6:53 PM 78.8 °F - 66.2 °F 65% 29.83 in 10.0 mi SSE 5.8 mph - N/A   Mostly Cloudy
7:12 PM 78.8 °F - 66.2 °F 65% 29.83 in 10.0 mi SSE 4.6 mph - N/A   Mostly Cloudy
7:33 PM 77.0 °F - 68.0 °F 74% 29.84 in 10.0 mi SSE 4.6 mph - N/A   Mostly Cloudy
7:53 PM 77.0 °F - 68.0 °F 74% 29.84 in 10.0 mi SSE 4.6 mph - N/A   Mostly Cloudy
8:12 PM 75.2 °F - 68.0 °F 78% 29.84 in 10.0 mi SE 5.8 mph - N/A   Mostly Cloudy
8:33 PM 75.2 °F - 68.0 °F 78% 29.84 in 10.0 mi ESE 5.8 mph - N/A   Mostly Cloudy
8:53 PM 73.4 °F - 68.0 °F 83% 29.85 in 10.0 mi East 3.5 mph - N/A   Overcast
9:12 PM 73.4 °F - 68.0 °F 83% 29.85 in 10.0 mi East 3.5 mph - N/A   Overcast
9:33 PM 73.4 °F - 68.0 °F 83% 29.86 in 10.0 mi ENE 3.5 mph - N/A   Overcast
9:53 PM 73.4 °F - 68.0 °F 83% 29.87 in 10.0 mi Calm Calm - N/A   Overcast
10:12 PM 73.4 °F - 68.0 °F 83% 29.88 in 10.0 mi Calm Calm - N/A   Overcast
10:33 PM 73.4 °F - 68.0 °F 83% 29.88 in 10.0 mi NE 3.5 mph - N/A   Overcast
10:53 PM 73.4 °F - 68.0 °F 83% 29.86 in 10.0 mi ENE 5.8 mph - N/A   Mostly Cloudy
11:12 PM 73.4 °F - 68.0 °F 83% 29.84 in 10.0 mi NNE 8.1 mph - N/A   Scattered Clouds
11:33 PM 73.4 °F - 68.0 °F 83% 29.84 in 10.0 mi NE 3.5 mph - N/A   Clear
11:53 PM 73.4 °F - 68.0 °F 83% 29.82 in 10.0 mi ENE 6.9 mph - N/A   Mostly Cloudy